Regional Weather Roundup
Issued by NWS Sioux Falls, SD

Home | Current Version | Previous Version | Graphics & Text | Print | Product List | Glossary Off
Versions: 1 2 3 4 5 6 7 8 9 10 11 12 13 14 15 16 17 18 19 20 21 22 23 24 25 26 27 28 29 30 31 32 33 34 35 36 37 38 39 40 41 42 43 44 45 46 47 48 49 50

000
ASUS43 KFSD 180302
RWRFSD

WEATHER ROUNDUP FOR SE SOUTH DAKOTA/SW MINNESOTA/NW IOWA
NATIONAL WEATHER SERVICE SIOUX FALLS SD
1000 PM CDT FRI APR 17 2015

NOTE: "FAIR" INDICATES FEW OR NO CLOUDS BELOW 12,000 FEET WITH NO
SIGNIFICANT WEATHER AND OR OBSTRUCTIONS TO VISIBILITY.


SDZ038>040-050-052>070-180400-
SOUTHEAST SOUTH DAKOTA

CITY           SKY/WX    TMP DP  RH WIND       PRES   REMARKS
BROOKINGS      PTCLDY    57  23  26 NE6       30.07S
CHAMBERLAIN    NOT AVBL
HURON          MOCLDY    55  25  31 NE5       30.06R
MADISON        FAIR      55  23  28 NE8       30.07R
MITCHELL       CLOUDY    63  34  33 CALM      30.05R
SIOUX FALLS    CLOUDY    65  33  30 CALM      30.04R
WINNER         CLOUDY    56  51  84 CALM      30.07R
YANKTON        CLOUDY    61  48  63 N9        30.02S
$$

MNZ071-072-080-081-089-090-097-098-180400-
SOUTHWEST MINNESOTA

CITY           SKY/WX    TMP DP  RH WIND       PRES   REMARKS
FAIRMONT       PTCLDY    63  34  34 N5        30.03F
JACKSON        PTCLDY    59  28  31 VRB5      30.06S
LUVERNE        MOCLDY    61  32  33 N6        30.05S
MARSHALL       PTCLDY    54  18  24 NW3       30.06S
MONTEVIDEO     PTCLDY    55  18  22 CALM      30.06S
PIPESTONE      PTCLDY    57  16  19 NE6       30.06S
REDWOOD FALLS  PTCLDY    64  20  18 N3        30.05R
TRACY          PTCLDY    59  19  20 NW5       30.07R
WORTHINGTON    PTCLDY    61  27  27 N8        30.06S
$$

IAZ001>003-012>014-020>022-031-032-NEZ013-014-SDZ071-180400-
NORTHWEST IOWA

CITY           SKY/WX    TMP DP  RH WIND       PRES   REMARKS
DENISON        MOCLDY    66  50  55 NE6       30.00S
ESTHERVILLE    PTCLDY    60  39  45 N8        30.03S
SIOUX CITY     MOCLDY    68  44  42 E6        30.01S
SPENCER        MOCLDY    62  43  49 NE7       30.04R
$$

ABBREVIATIONS USED IN REMARKS
   TC - TEMPERATURE IN CELSIUS
  WCI - WIND CHILL INDEX
   HX - HEAT INDEX
  VSB - VISIBILITY




USA.gov is the U.S. government's official web portal to all federal, state and local government web resources and services.